Davenport, IA

3:46 PM CDT on September 23, 2019 (GMT -0500)
Davenport Municipal

Weather History for KDVN - August, 2019

Change the Weather History Date:

Wednesday, August 21, 2019

  Actual Average Record
Temperature  
Mean Temperature 72 °F 71 °F  
Max Temperature 80 °F 81 °F 95 °F (1968)
Min Temperature 64 °F 60 °F 46 °F (2004)
Degree Days  
Heating Degree Days 0 0  
Month to date heating degree days 0 0  
Since 1 June heating degree days 8 28  
Since 1 July heating degree days 0 4  
Cooling Degree Days 7 6  
Month to date cooling degree days 184 151  
Year to date cooling degree days 818 652  
Since 1 June cooling degree days 770 591  
Growing Degree Days 21 (Base 50)    
Moisture  
Dew Point 67 °F    
Average Humidity 84    
Maximum Humidity 93    
Minimum Humidity 74    
Precipitation  
Precipitation 0.02 in 0.12 in 2.76 in (1964)
Month to date precipitation 2.30 3.32  
Year to date precipitation 31.38 24.52  
Snow  
Snow 0.00 in - - ()
Month to date snowfall 0.0  
Since 1 June snowfall 0.0  
Since 1 July snowfall 0.0  
Snow Depth 0.00 in    
Sea Level Pressure  
Sea Level Pressure 29.99 in    
Wind  
Wind Speed 6 mph (West)    
Max Wind Speed 21 mph    
Max Gust Speed 34 mph    
Visibility 6 miles    
Events Fog , Rain , Thunderstorm    
T = Trace of Precipitation, MM = Missing Value Source: NWS Daily Summary

Daily Weather History Graph

Daily Weather History Graph

Search for Another Location

Airport or City:

Astronomy

Aug. 21, 2019 Rise Set
Actual Time 6:16 AM CDT 7:53 PM CDT
Civil Twilight 5:47 AM CDT 8:22 PM CDT
Nautical Twilight 5:12 AM CDT 8:58 PM CDT
Astronomical Twilight 4:34 AM CDT 9:35 PM CDT
Moon 11:06 PM CDT (8/21) 11:57 AM CDT (8/21)
Length of Visible Light 14h 35m
Length of Day
13h 36m
Waning Gibbous, 69% of the Moon is Illuminated
Aug 21
Waning Gibbous
Aug 23
Last Quarter
Aug 30
New
Sep 5
First Quarter
Sep 13
Full

Hourly Weather History & Observations

Time (CDT) Temp. Dew Point Humidity Pressure Visibility Wind Dir Wind Speed Gust Speed Precip Events Conditions
12:52 AM 68.0 °F 66.0 °F 93% 30.00 in 10.0 mi Calm Calm - N/A   Clear
1:52 AM 68.0 °F 66.0 °F 93% 29.98 in 10.0 mi WSW 3.5 mph - N/A   Clear
2:52 AM 66.0 °F 63.0 °F 90% 29.97 in 4.0 mi Calm Calm - N/A   Clear
3:13 AM 66.0 °F 64.0 °F 93% 29.98 in 2.0 mi Calm Calm - N/A   Clear
3:33 AM 66.0 °F 64.0 °F 93% 29.97 in 1.8 mi Calm Calm - N/A   Clear
3:52 AM 66.0 °F 64.0 °F 93% 29.94 in 0.5 mi Calm Calm - N/A Fog Fog
4:04 AM 66.0 °F 64.0 °F 93% 29.95 in 1.2 mi Calm Calm - N/A   Partly Cloudy
4:07 AM 66.0 °F 64.0 °F 93% 29.94 in 3.0 mi Calm Calm - N/A   Partly Cloudy
4:52 AM 64.9 °F 63.0 °F 93% 29.91 in 5.0 mi Calm Calm - N/A   Clear
5:13 AM 64.9 °F 63.0 °F 93% 29.95 in 1.8 mi Calm Calm - N/A   Clear
5:25 AM 66.0 °F 64.0 °F 93% 29.97 in 3.0 mi SW 4.6 mph - N/A   Clear
5:52 AM 64.9 °F 63.0 °F 93% 29.95 in 2.0 mi Calm Calm - N/A   Clear
6:04 AM 64.0 °F 63.0 °F 96% 29.97 in 0.8 mi Calm Calm - N/A   Clear
6:06 AM 64.0 °F 63.0 °F 96% 29.97 in 0.2 mi Calm Calm - N/A Fog Fog
6:18 AM 64.0 °F 63.0 °F 96% 29.98 in 1.2 mi Calm Calm - N/A   Partly Cloudy
6:25 AM 64.9 °F 63.0 °F 93% 29.98 in 2.0 mi Calm Calm - N/A   Partly Cloudy
6:33 AM 64.9 °F 63.0 °F 93% 29.98 in 1.0 mi Calm Calm - N/A   Mist
6:52 AM 66.0 °F 64.0 °F 93% 29.96 in 2.5 mi Calm Calm - N/A   Scattered Clouds
7:10 AM 66.0 °F 64.9 °F 96% 30.01 in 3.0 mi Calm Calm - N/A   Partly Cloudy
7:52 AM 71.1 °F 68.0 °F 90% 29.98 in 4.0 mi Calm Calm - N/A   Scattered Clouds
8:41 AM 73.0 °F 70.0 °F 90% 29.99 in 3.0 mi SSW 3.5 mph - N/A   Scattered Clouds
8:52 AM 73.9 °F 71.1 °F 91% 29.98 in 4.0 mi SSW 3.5 mph - N/A   Partly Cloudy
10:08 AM 75.9 °F 72.0 °F 87% 30.03 in 7.0 mi WSW 5.8 mph - N/A   Mostly Cloudy
10:52 AM 75.9 °F 72.0 °F 87% 30.02 in 8.0 mi WSW 6.9 mph - N/A   Scattered Clouds
11:52 AM 75.9 °F 72.0 °F 87% 30.03 in 9.0 mi SW 6.9 mph - N/A   Mostly Cloudy
12:16 PM 75.9 °F 72.0 °F 87% 30.05 in 4.0 mi WSW 13.8 mph - 0.01 in Rain Light Rain
12:29 PM 75.0 °F 71.1 °F 87% 30.04 in 5.0 mi WSW 16.1 mph 25.3 mph 0.02 in Rain , Thunderstorm Light Rain
12:39 PM 75.0 °F 71.1 °F 87% 30.05 in 10.0 mi West 16.1 mph 28.8 mph 0.02 in Thunderstorm Mostly Cloudy
12:46 PM 75.2 °F 71.6 °F 89% 30.04 in 10.0 mi West 11.5 mph 26.5 mph 0.02 in   Mostly Cloudy
12:47 PM 75.0 °F 71.1 °F 87% 30.02 in 10.0 mi West 13.8 mph 26.5 mph 0.02 in   Mostly Cloudy
12:56 PM 73.9 °F 70.0 °F 87% 30.04 in 10.0 mi West 15.0 mph 25.3 mph N/A   Scattered Clouds
1:52 PM 73.9 °F 66.0 °F 76% 30.01 in 10.0 mi West 17.3 mph 25.3 mph 0.00 in   Mostly Cloudy
2:52 PM 75.0 °F 69.1 °F 82% 29.99 in 10.0 mi WNW 12.7 mph - N/A   Partly Cloudy
3:52 PM 78.1 °F 71.1 °F 79% 29.97 in 10.0 mi NW 10.4 mph - N/A   Clear
4:52 PM 77.0 °F 68.0 °F 74% 29.93 in 10.0 mi North 13.8 mph - N/A   Partly Cloudy
5:52 PM 75.9 °F 68.0 °F 76% 29.97 in 10.0 mi NNW 5.8 mph - N/A   Clear
6:52 PM 75.0 °F 68.0 °F 79% 29.96 in 10.0 mi NW 4.6 mph - N/A   Clear
7:52 PM 73.0 °F 68.0 °F 84% 29.98 in 10.0 mi WNW 3.5 mph - N/A   Scattered Clouds
8:52 PM 72.0 °F 66.0 °F 81% 30.00 in 10.0 mi North 3.5 mph - N/A   Mostly Cloudy
9:52 PM 71.1 °F 66.9 °F 87% 30.01 in 10.0 mi NW 3.5 mph - N/A   Clear
10:52 PM 70.0 °F 66.9 °F 90% 30.01 in 9.0 mi NNW 4.6 mph - N/A   Overcast
11:52 PM 69.1 °F 63.0 °F 81% 30.02 in 10.0 mi North 6.9 mph - N/A   Overcast